RH
96 100 100 98 80 68 56 53 49 37 36 44 45 49 45 72 100 88 90 74 52 55 52 45 37 35 33 35 35 34 35 34 34 35 29 34 32 24 24 21 19 21 24
99 100 100 100 100 95 52 67 56 58 53 50 57 60 49 75 87 100 100 67 52 52 52 44 45 41 40 50 49 48 41 37 35 33 30 30 29 28 25 20 22 23 25
95 100 100 100 89 97 59 78 82 60 78 76 79 68 73 100 100 100 100 61 48 54 57 52 49 44 52 56 62 66 70 47 40 31 28 24 22 22 21 22 26 27 29
71 100 99 96 63 61 70 73 96 97 82 75 80 76 72 95 100 99 76 53 49 56 57 64 57 52 45 44 74 96 96 62 42 37 32 25 20 21 22 24 27 25 28
71 100 100 91 54 50 60 69 78 96 70 65 74 71 86 100 87 94 91 57 52 51 52 60 59 56 57 96 100 100 95 62 31 22 23 21 20 23 22 23 30 24 25
67 91 95 64 57 60 68 67 64 68 67 66 84 73 81 96 100 100 100 97 59 44 51 49 48 55 80 100 100 87 76 62 31 26 22 21 23 23 22 25 24 22 23
62 65 72 68 62 65 77 67 67 76 73 69 86 78 81 100 93 100 100 100 85 56 56 60 58 55 76 94 75 64 48 33 28 34 27 20 20 21 26 27 22 27 26
62 63 66 70 69 69 100 91 75 87 71 84 93 76 92 100 100 86 84 83 86 91 100 100 76 68 61 67 60 42 32 31 30 28 26 22 20 24 24 26 25 27 28
59 55 64 71 70 81 95 97 83 84 84 83 94 100 99 100 100 100 83 75 100 100 80 74 63 60 52 40 33 34 34 28 22 21 24 31 23 27 25 28 27 33 36
91 76 71 78 91 98 85 100 96 91 84 97 94 100 100 100 100 100 88 79 92 92 91 79 59 44 36 37 33 31 23 22 19 21 23 22 25 26 28 31 34 35 47
100 96 87 80 91 98 83 100 100 100 100 100 100 100 100 100 100 99 100 98 98 73 52 42 43 34 34 29 28 31 28 29 25 29 29 31 28 29 34 35 43 45 46
100 100 100 100 100 92 84 92 97 100 100 100 100 100 100 100 100 99 100 78 82 56 36 35 35 34 33 36 35 30 32 32 37 36 30 30 32 37 35 49 58 51 54
100 100 100 100 100 100 100 97 97 96 91 100 100 100 100 100 87 100 98 87 81 80 51 35 32 39 50 42 40 45 38 39 39 31 35 34 40 42 48 69 52 82 100
100 100 100 100 100 100 100 95 73 82 95 100 100 100 100 98 93 94 100 96 94 87 69 45 48 66 64 68 60 62 60 62 38 37 49 47 46 45 74 65 94 100 100
75 86 100 100 100 100 100 100 100 100 100 100 100 100 100 100 100 100 100 100 90 66 43 69 87 92 88 73 78 82 80 50 48 53 50 49 37 55 69 97 100 100 100
71 72 96 97 99 99 98 100 100 100 100 100 100 100 100 100 99 99 86 78 79 62 84 92 100 100 85 78 66 71 59 48 57 41 43 36 37 81 89 100 96 90 98
60 48 89 100 100 100 100 100 100 100 100 100 100 100 95 87 83 90 100 100 100 100 100 100 99 98 85 56 72 68 60 53 44 36 41 37 78 99 100 100 94 92 69
95 78 97 88 93 99 100 97 100 100 100 100 100 100 100 100 100 95 89 100 100 100 100 100 90 73 57 78 63 56 61 49 35 38 40 69 99 100 100 82 90 80 49
92 100 80 100 73 74 90 76 86 96 100 100 100 100 100 100 100 100 100 100 100 100 98 92 72 68 62 60 61 53 41 38 46 59 95 100 100 89 78 92 68 49 29
100 100 100 99 81 69 58 48 77 92 100 100 100 100 100 99 100 100 93 94 100 97 88 99 96 80 62 61 60 43 50 60 92 80 100 81 88 96 68 71 57 44 32
100 100 100 100 100 100 68 50 62 74 81 82 100 100 100 100 99 89 85 74 69 81 57 65 82 75 56 55 60 60 85 100 100 100 92 84 77 79 75 67 42 30 25
97 100 100 100 100 100 100 76 86 98 93 70 86 96 96 100 68 63 54 51 50 65 63 41 58 53 35 49 73 100 100 100 100 83 92 77 71 81 66 45 33 25 29
97 100 99 100 89 87 90 100 100 92 86 81 87 100 93 65 59 55 55 69 63 54 96 63 74 79 98 100 100 95 100 98 84 86 70 87 70 67 48 32 33 42 38
100 100 100 89 80 82 100 100 100 100 99 79 100 84 90 93 97 99 100 94 94 77 82 100 96 100 100 100 100 92 100 91 91 86 76 77 66 56 39 37 44 48 44
100 100 100 100 100 100 100 100 97 95 98 100 100 100 100 100 100 100 100 100 100 100 100 100 100 100 99 100 100 100 100 93 89 77 78 68 40 35 44 59 48 48 30
100 100 100 100 100 100 100 100 100 100 100 100 100 100 100 100 100 100 100 100 100 100 100 100 100 100 100 100 100 88 79 82 74 71 52 39 35 47 61 62 59 37 29
Wind_Speed
56 55 54 55 51 47 43 40 38 37 36 36 37 34 35 32 33 34 33 36 30 27 24 20 16 16 18 22 25 27 29 33 32 34 35 33 32 28 27 34 41 44 46
58 56 55 54 52 50 45 40 40 37 39 39 38 34 32 29 31 37 39 38 32 29 25 22 20 19 21 22 23 26 28 30 34 37 39 36 34 34 33 38 44 47 49
62 61 59 58 55 53 46 42 43 41 40 39 39 32 24 30 36 38 40 38 32 29 25 22 23 21 23 25 28 31 34 33 40 37 36 36 27 23 34 44 54 52 58
62 60 62 58 56 52 49 46 45 46 44 42 39 37 36 32 38 42 43 36 34 32 28 27 26 28 29 31 33 34 35 39 41 45 39 27 27 34 41 49 52 51 55
62 58 61 62 56 52 51 47 47 48 45 41 37 39 33 34 36 37 41 39 35 32 32 32 32 34 32 36 36 34 38 42 44 42 32 29 32 32 47 56 58 58 63
64 64 65 60 56 53 53 49 49 47 45 42 40 38 36 36 38 38 41 43 37 33 33 35 36 34 34 37 38 40 44 46 43 42 42 40 40 45 57 63 60 65 67
64 63 64 61 58 56 55 52 51 51 48 45 42 43 40 41 38 40 40 40 40 39 35 38 40 40 38 39 40 44 46 47 45 48 44 47 51 53 55 61 66 68 71
65 63 63 61 60 59 56 53 54 54 49 47 45 44 43 41 42 45 45 45 42 39 37 38 42 43 44 47 46 43 44 50 52 54 52 55 57 62 65 69 70 73 74
64 64 63 61 60 60 58 57 57 54 52 47 47 44 39 44 43 49 44 41 39 43 45 47 47 46 50 52 54 52 52 53 55 55 55 60 68 70 71 73 72 75 75
65 64 64 61 59 58 57 58 57 55 53 53 49 50 49 48 47 49 45 45 47 46 47 48 51 56 57 55 52 51 54 59 59 60 66 66 73 74 74 75 76 77 79
60 64 63 62 63 62 60 57 59 59 56 55 58 50 47 49 50 49 47 50 51 53 52 55 56 44 45 47 49 58 65 65 65 68 68 72 79 79 78 78 81 83 86
63 63 60 62 63 62 64 64 62 64 64 65 62 57 50 54 54 53 53 55 53 55 53 54 54 56 57 58 60 65 69 71 72 75 78 81 83 84 89 84 85 89 87
62 62 61 58 61 65 67 66 67 60 57 56 57 55 54 55 56 55 58 59 59 61 59 60 59 61 60 65 68 70 73 75 77 83 84 89 85 89 91 85 90 89 92
71 67 63 58 55 56 57 59 60 57 53 52 53 55 55 55 59 58 60 62 63 65 65 66 67 66 67 70 74 74 77 81 86 90 92 88 92 97 90 92 90 94 102
73 70 68 62 57 57 54 55 54 53 53 54 55 55 56 57 59 62 65 65 68 71 69 70 71 73 73 73 74 79 79 87 90 91 96 94 98 97 97 92 96 106 109
75 78 67 66 65 63 61 59 56 57 59 62 61 61 64 65 66 64 68 74 77 77 75 77 78 76 79 79 80 84 89 93 93 97 100 100 103 96 97 95 104 112 116
77 75 69 68 68 67 64 64 64 63 64 65 67 68 70 71 74 72 71 74 79 78 76 80 78 83 83 88 87 90 93 99 100 102 104 109 100 98 97 111 117 121 130
78 75 74 73 73 72 70 67 67 65 64 67 69 68 70 72 75 76 77 79 78 80 78 82 86 91 93 90 95 100 103 101 106 105 106 102 100 103 117 124 127 133 139
90 86 78 80 80 75 75 74 70 67 67 67 68 72 72 75 73 72 74 76 79 82 86 91 96 99 97 99 103 105 102 102 104 103 99 105 113 124 130 133 138 144 143
93 91 82 78 77 79 77 76 72 71 74 74 77 78 78 79 80 82 85 86 90 93 96 95 99 103 104 107 109 107 104 105 106 101 115 120 127 130 138 141 146 149 146
93 93 90 89 83 79 78 79 78 78 80 81 83 85 88 91 91 94 94 94 95 96 99 101 104 104 107 106 107 107 103 106 112 114 123 132 136 139 144 150 153 145 146
97 95 97 89 88 86 86 86 86 88 89 87 88 92 91 93 93 95 96 99 100 99 102 105 103 110 111 110 108 103 111 115 126 132 136 142 143 150 150 155 156 150 133
98 100 104 103 95 93 92 90 91 94 95 92 95 95 95 95 96 98 101 97 105 105 102 107 107 103 106 103 108 116 123 129 136 140 145 145 150 152 156 154 150 132 125
103 95 95 105 110 94 91 95 96 98 99 94 92 100 99 92 93 101 101 104 98 104 105 102 103 106 112 119 126 131 134 138 142 147 151 147 154 154 150 153 139 131 135
111 113 109 100 95 93 97 98 95 96 96 95 98 97 103 106 103 100 101 109 112 114 114 117 120 125 127 131 133 136 141 145 148 151 156 157 154 153 148 137 141 133 130
116 115 119 120 111 103 105 106 101 108 107 103 107 108 112 115 112 113 117 122 127 126 124 124 128 131 134 137 140 146 148 150 150 153 153 159 158 143 127 141 130 137 138
Wind_Direction
236 240 244 251 256 258 262 267 268 271 274 276 280 281 284 278 275 284 291 298 288 285 282 279 274 275 276 282 288 292 292 298 300 302 308 308 303 302 306 327 328 328 333
235 241 245 250 256 259 261 266 266 267 272 277 279 281 278 270 277 287 285 295 287 286 283 282 272 277 287 289 297 307 308 307 311 309 307 303 306 301 305 326 325 334 334
231 239 243 248 251 255 260 264 264 267 270 274 277 278 259 282 278 278 285 290 288 282 273 275 271 273 280 288 295 302 310 309 314 315 312 302 298 312 326 323 327 324 328
232 237 243 245 249 253 258 261 258 263 268 270 272 272 266 268 270 274 280 284 287 283 268 271 271 278 287 293 298 299 303 309 309 309 312 309 320 324 322 321 323 330 321
233 232 239 245 250 250 255 256 254 259 265 269 271 268 264 271 276 282 282 286 286 283 269 266 275 281 286 293 295 300 301 304 310 315 305 302 298 304 320 325 323 328 329
234 233 239 244 246 249 252 254 257 260 264 268 268 270 261 268 279 279 280 283 287 281 274 272 277 283 285 287 289 293 295 300 306 315 310 313 307 313 315 318 323 326 328
235 237 239 243 245 249 251 254 257 259 262 266 270 270 264 269 271 275 274 275 280 279 279 277 277 279 280 281 284 289 294 301 297 309 310 311 311 308 310 315 317 324 325
235 236 238 241 244 247 251 253 254 257 261 263 268 268 266 265 271 271 269 270 273 274 274 274 271 277 277 277 282 290 302 303 301 306 307 314 314 319 317 316 318 322 321
234 236 237 239 242 245 247 249 253 255 261 264 261 263 268 271 273 270 270 264 264 265 272 277 279 282 282 285 289 291 295 299 304 306 306 311 316 319 317 318 319 321 322
234 235 236 236 239 244 243 245 251 255 259 261 260 264 266 268 267 266 268 262 264 269 273 276 279 286 289 290 288 291 297 302 306 309 310 313 316 316 314 313 315 319 320
237 237 238 237 237 239 240 243 248 252 255 257 258 263 261 264 262 260 262 265 268 269 271 276 279 287 290 293 292 296 303 304 307 308 310 311 315 313 313 311 315 317 320
232 232 238 240 239 239 241 244 245 249 250 251 256 260 261 259 260 259 263 265 266 269 276 279 282 286 293 297 296 298 302 303 306 309 308 307 312 313 313 311 315 313 318
227 233 234 239 239 240 242 246 249 251 251 249 252 253 255 257 256 257 266 270 270 272 276 282 286 289 293 296 297 299 300 301 304 306 305 308 310 311 310 310 312 312 317
225 233 235 237 238 242 247 249 250 248 247 251 254 255 258 257 263 264 267 270 269 273 276 281 286 288 292 294 297 298 300 301 305 305 307 309 310 310 307 308 312 317 315
228 232 234 236 237 242 246 248 248 250 253 256 258 256 257 260 264 265 268 268 268 271 277 281 282 285 290 294 295 297 298 300 302 303 306 305 309 307 308 310 314 312 309
227 230 235 238 238 238 237 241 244 247 250 252 253 254 256 258 260 264 265 267 268 275 281 283 285 286 291 294 296 297 301 301 301 301 301 303 304 303 310 311 308 309 307
231 232 238 240 240 240 243 243 248 251 254 254 257 260 263 261 264 267 269 273 275 276 280 282 285 289 290 295 295 298 298 301 301 302 301 302 301 303 304 305 306 307 311
235 237 239 238 242 243 245 247 249 252 253 256 259 261 262 262 267 268 270 276 275 278 280 283 286 289 292 291 295 297 299 298 300 301 300 300 304 303 302 306 306 310 314
237 238 238 239 241 244 247 249 250 251 251 257 260 261 264 266 267 270 271 274 276 277 279 282 286 290 291 292 296 298 301 301 299 297 300 300 300 301 306 306 312 313 315
236 237 235 238 240 244 247 251 249 253 253 262 265 267 265 266 268 272 276 278 278 280 282 285 287 288 291 294 296 298 297 297 295 299 301 302 306 304 307 310 312 312 313
237 237 239 240 241 243 249 249 250 254 258 264 266 267 270 272 273 275 277 279 281 282 285 287 287 289 290 293 294 294 297 294 293 296 300 302 302 309 307 311 313 312 311
238 238 239 241 241 244 248 246 252 259 262 263 266 267 269 272 275 276 277 279 281 282 283 284 288 291 291 291 293 293 292 292 297 298 301 302 306 309 310 310 312 312 311
238 240 242 244 244 246 248 252 254 254 257 262 262 266 270 272 273 274 277 278 281 281 281 287 287 287 289 290 290 293 296 298 298 299 302 305 306 308 309 310 312 311 310
238 236 238 245 248 249 251 252 255 254 255 259 262 261 264 266 270 271 273 278 277 281 283 284 284 285 286 288 290 293 295 296 299 301 303 307 307 307 308 311 309 310 309
240 240 239 242 242 240 248 251 251 253 255 253 259 261 261 263 267 269 275 273 275 278 278 281 283 287 288 291 293 295 295 299 300 303 305 307 308 307 309 309 309 309 311
240 242 244 243 243 240 248 250 251 252 254 256 260 263 264 265 268 268 270 273 276 279 281 283 288 289 292 294 295 294 296 300 303 303 306 304 308 308 308 309 308 308 310